Weather History for KPVC - April, 2012

Change the Weather History Date:

Friday, April 13, 2012

  Actual Average Record
Temperature  
Mean Temperature 50 °F -  
Max Temperature 57 °F 49 °F 66 °F (1952)
Min Temperature 42 °F 37 °F 33 °F (2003)
Degree Days  
Heating Degree Days 16    
Moisture  
Dew Point 36 °F    
Average Humidity 64    
Maximum Humidity 81    
Minimum Humidity 33    
Precipitation  
Precipitation 0.00 in - - ()
Sea Level Pressure  
Sea Level Pressure 30.09 in    
Wind  
Wind Speed 8 mph (WNW)    
Max Wind Speed 15 mph    
Max Gust Speed 21 mph    
Visibility 10 miles    
Events      
Averages and records for this station are not official NWS values.
T = Trace of Precipitation, MM = Missing Value Source: NWS Daily Summary

Daily Weather History Graph

Daily Weather History Graph

Search for Another Location

Airport or City:

Trip Planner

Search our weather history database for the weather conditions in past years. The results will help you decide how hot, cold, wet, or windy it might be!

Date:

Astronomy

Apr. 13, 2012 Rise Set
Actual Time 6:02 AM EDT 7:20 PM EDT
Civil Twilight 5:33 AM EDT 7:49 PM EDT
Nautical Twilight 4:59 AM EDT 8:24 PM EDT
Astronomical Twilight 4:22 AM EDT 9:01 PM EDT
Moon 1:52 AM EDT (4/13) 11:59 AM EDT (4/13)
Length of Visible Light 14h 15m
Length of Day
13h 17m
Waning Gibbous, 48% of the Moon is Illuminated
Apr 13
Waning Gibbous
Apr 21
New
Apr 29
First Quarter
May 5
Full
May 12
Last Quarter

Hourly Weather History & Observations

Time (EDT) Temp. Windchill Dew Point Humidity Pressure Visibility Wind Dir Wind Speed Gust Speed Precip Events Conditions
12:35 AM 44.6 °F 40.2 °F 39.2 °F 81% 30.08 in 10.0 mi North 8.1 mph - N/A   Overcast
12:55 AM 44.6 °F 39.7 °F 39.2 °F 81% 30.08 in 10.0 mi North 9.2 mph - N/A   Mostly Cloudy
1:15 AM 44.6 °F 40.2 °F 37.4 °F 76% 30.08 in 10.0 mi North 8.1 mph - N/A   Mostly Cloudy
1:35 AM 44.6 °F 40.7 °F 37.4 °F 76% 30.07 in 10.0 mi North 6.9 mph - N/A   Overcast
1:55 AM 44.6 °F 40.2 °F 37.4 °F 76% 30.07 in 10.0 mi NNE 8.1 mph - N/A   Mostly Cloudy
2:15 AM 44.6 °F 40.2 °F 37.4 °F 76% 30.07 in 10.0 mi NNE 8.1 mph - N/A   Scattered Clouds
3:15 AM 44.6 °F 41.4 °F 37.4 °F 76% 30.07 in 10.0 mi NNE 5.8 mph - N/A   Overcast
3:35 AM 44.6 °F 41.4 °F 37.4 °F 76% 30.08 in 10.0 mi North 5.8 mph - N/A   Scattered Clouds
4:15 AM 42.8 °F 39.3 °F 37.4 °F 81% 30.08 in 10.0 mi North 5.8 mph - N/A   Partly Cloudy
4:35 AM 42.8 °F 39.3 °F 37.4 °F 81% 30.08 in 10.0 mi North 5.8 mph - N/A   Partly Cloudy
4:55 AM 42.8 °F 39.3 °F 37.4 °F 81% 30.08 in 10.0 mi NNW 5.8 mph - N/A   Scattered Clouds
5:35 AM 44.6 °F 41.4 °F 37.4 °F 76% 30.09 in 10.0 mi NNW 5.8 mph - N/A   Mostly Cloudy
5:55 AM 44.6 °F 41.4 °F 37.4 °F 76% 30.10 in 10.0 mi NNW 5.8 mph - N/A   Overcast
6:15 AM 42.8 °F 39.3 °F 37.4 °F 81% 30.10 in 10.0 mi NW 5.8 mph - N/A   Scattered Clouds
6:35 AM 42.8 °F 40.1 °F 37.4 °F 81% 30.10 in 10.0 mi NW 4.6 mph - N/A   Clear
6:55 AM 44.6 °F 41.4 °F 37.4 °F 76% 30.11 in 10.0 mi NW 5.8 mph - N/A   Clear
7:15 AM 44.6 °F 40.2 °F 39.2 °F 81% 30.11 in 10.0 mi NW 8.1 mph - N/A   Clear
7:55 AM 46.4 °F 41.5 °F 37.4 °F 71% 30.12 in 10.0 mi NW 10.4 mph - N/A   Clear
8:15 AM 46.4 °F 41.1 °F 37.4 °F 71% 30.13 in 10.0 mi NNW 11.5 mph - N/A   Clear
8:35 AM 46.4 °F 41.5 °F 37.4 °F 71% 30.13 in 10.0 mi NNW 10.4 mph - N/A   Clear
8:55 AM 46.4 °F 41.5 °F 37.4 °F 71% 30.14 in 10.0 mi NNW 10.4 mph - N/A   Clear
9:15 AM 48.2 °F - 37.4 °F 66% 30.14 in 10.0 mi NNW 10.4 mph - N/A   Clear
9:35 AM 48.2 °F - 37.4 °F 66% 30.15 in 10.0 mi NNW 10.4 mph - N/A   Clear
9:55 AM 48.2 °F - 37.4 °F 66% 30.15 in 10.0 mi NNW 10.4 mph - N/A   Clear
10:35 AM 48.2 °F - 37.4 °F 66% 30.15 in 10.0 mi NNW 6.9 mph - N/A   Clear
10:55 AM 48.2 °F - 37.4 °F 66% 30.15 in 10.0 mi NNW 9.2 mph - N/A   Clear
11:15 AM 48.2 °F - 37.4 °F 66% 30.15 in 10.0 mi NNW 9.2 mph - N/A   Clear
11:35 AM 50.0 °F - 37.4 °F 62% 30.15 in 10.0 mi NNW 8.1 mph - N/A   Clear
12:15 PM 48.2 °F - 35.6 °F 62% 30.14 in 10.0 mi NW 5.8 mph - N/A   Clear
12:35 PM 50.0 °F - 35.6 °F 58% 30.14 in 10.0 mi NNW 6.9 mph - N/A   Clear
12:55 PM 51.8 °F - 35.6 °F 54% 30.13 in 10.0 mi NW 5.8 mph - N/A   Clear
1:15 PM 51.8 °F - 33.8 °F 50% 30.13 in 10.0 mi NNW 4.6 mph - N/A   Clear
1:55 PM 53.6 °F - 28.4 °F 38% 30.12 in 10.0 mi NNW 4.6 mph - N/A   Clear
2:15 PM 55.4 °F - 26.6 °F 33% 30.11 in 10.0 mi NNW 3.5 mph - N/A   Clear
2:35 PM 55.4 °F - 28.4 °F 36% 30.09 in 10.0 mi ENE 4.6 mph - N/A   Clear
2:55 PM 57.2 °F - 28.4 °F 33% 30.08 in 10.0 mi NE 3.5 mph - N/A   Clear
3:15 PM 57.2 °F - 28.4 °F 33% 30.08 in 10.0 mi Calm Calm - N/A   Clear
3:35 PM 55.4 °F - 30.2 °F 38% 30.07 in 10.0 mi SSW 6.9 mph - N/A   Clear
3:55 PM 57.2 °F - 28.4 °F 33% 30.06 in 10.0 mi SSW 9.2 mph - N/A   Clear
4:15 PM 57.2 °F - 28.4 °F 33% 30.06 in 10.0 mi South 4.6 mph - N/A   Clear
4:35 PM 53.6 °F - 33.8 °F 47% 30.05 in 10.0 mi SSW 12.7 mph - N/A   Clear
5:15 PM 55.4 °F - 28.4 °F 36% 30.05 in 10.0 mi South 10.4 mph 16.1 mph N/A   Clear
5:35 PM 53.6 °F - 30.2 °F 41% 30.05 in 10.0 mi South 11.5 mph - N/A   Clear
5:55 PM 53.6 °F - 30.2 °F 41% 30.05 in 10.0 mi South 12.7 mph 17.3 mph N/A   Clear
6:15 PM 51.8 °F - 35.6 °F 54% 30.04 in 10.0 mi South 15.0 mph 18.4 mph N/A   Clear
6:35 PM 51.8 °F - 35.6 °F 54% 30.04 in 10.0 mi South 12.7 mph - N/A   Clear
6:55 PM 50.0 °F - 35.6 °F 58% 30.05 in 10.0 mi SSW 12.7 mph - N/A   Clear
7:15 PM 50.0 °F - 35.6 °F 58% 30.05 in 10.0 mi SSW 13.8 mph - N/A   Clear
7:35 PM 48.2 °F - 33.8 °F 58% 30.06 in 10.0 mi SSW 15.0 mph - N/A   Clear
7:55 PM 48.2 °F - 35.6 °F 62% 30.06 in 10.0 mi SSW 13.8 mph 20.7 mph N/A   Clear
8:15 PM 48.2 °F - 37.4 °F 66% 30.06 in 10.0 mi SSW 15.0 mph - N/A   Clear
8:35 PM 48.2 °F - 37.4 °F 66% 30.06 in 10.0 mi SSW 12.7 mph - N/A   Clear
8:55 PM 48.2 °F - 39.2 °F 71% 30.07 in 10.0 mi SSW 12.7 mph - N/A   Clear
9:35 PM 46.4 °F 41.5 °F 39.2 °F 76% 30.07 in 10.0 mi SSW 10.4 mph - N/A   Clear
9:55 PM 46.4 °F 42.9 °F 39.2 °F 76% 30.07 in 10.0 mi SSW 6.9 mph - N/A   Clear
10:15 PM 46.4 °F 42.4 °F 39.2 °F 76% 30.07 in 10.0 mi SW 8.1 mph - N/A   Clear
10:35 PM 44.6 °F 40.2 °F 37.4 °F 76% 30.07 in 10.0 mi SW 8.1 mph - N/A   Clear
10:55 PM 44.6 °F 40.2 °F 37.4 °F 76% 30.07 in 10.0 mi SW 8.1 mph - N/A   Clear
11:15 PM 44.6 °F 40.7 °F 37.4 °F 76% 30.07 in 10.0 mi SW 6.9 mph - N/A   Clear
11:35 PM 44.6 °F 40.2 °F 35.6 °F 71% 30.07 in 10.0 mi SW 8.1 mph - N/A   Clear
11:55 PM 44.6 °F 39.2 °F 37.4 °F 76% 30.07 in 10.0 mi WSW 10.4 mph - N/A   Clear